Flag for Brazil Weather past 2 weeks in Santos, São Paulo, Brazil

Now
77 °F

Sunny.


Feels Like: 79 °F
Forecast: 71 / 85 °F
Wind: 17 mph from Northwest

Location: Sao Paulo Airport

Current Time: May 27, 2015 at 1:55:06 PM

Latest Report: May 27, 2015 at 1:00 PM


Visibility: 10 mi

Pressure: 30.04 "Hg

Humidity: 54%

Dew point: 59 °F

Location of SantosLocation

Historic Weather in Santos — Graph

°F

Santos temperature yesterday

Maximum temperature yesterday: 75 °F (at 2:00 PM)
Minimum temperature yesterday: 66 °F (at 1:00 AM)
Average temperature yesterday: 69 °F

Past Weeks' High & Low Weather Summary

 TemperatureHumidityPressure
High82 °F (May 25, 3:00 PM)94% (May 12, 7:00 PM)30.36 "Hg (May 12, 7:00 PM)
Low57 °F (May 14, 12:00 AM)45% (May 25, 3:00 PM)30.07 "Hg (May 24, 3:00 AM)
Average66 °F76%30.21 "Hg
* Reported May 12 12:00 Noon — May 27 12:00 Noon, Santos, Weather by CustomWeather, © 2015

Note: Actual official high and low records may vary slightly from our data, if they occured in-between our weather recording intervals... More about our weather records

Advertising

Santos weather history for previous 24 hours

 ConditionsComfort  
Time TempWeatherWind HumidityBarometerVisibility
12:00 PM
Wed, May 27
79 °FSunny.13 mph51%30.07 "Hg10 mi
11:00 AM77 °FSunny.10 mph57%30.07 "Hg10 mi
10:00 AM73 °FSunny.5 mph69%30.09 "Hg10 mi
9:00 AM70 °FPassing clouds.7 mph78%30.09 "Hg5 mi
8:00 AM68 °FFog.7 mph83%30.09 "Hg3 mi
7:00 AM66 °FFog.7 mph88%30.09 "Hg3 mi
6:00 AM66 °FFog.6 mph88%30.07 "Hg3 mi
5:00 AM66 °FPartly cloudy.6 mph88%30.07 "Hg5 mi
4:00 AM66 °FRain. Passing clouds.5 mph88%30.07 "Hg4 mi
3:01 AM68 °FRain. Mostly cloudy.5 mph83%30.07 "Hg5 mi
2:00 AM68 °FMostly cloudy.5 mph83%30.09 "HgN/A
1:00 AM68 °FPassing clouds.5 mph83%30.09 "HgN/A
12:00 AM68 °FMostly cloudy.6 mph83%30.09 "HgN/A
11:00 PM
Tue, May 26
68 °FPassing clouds.5 mph83%30.15 "Hg4 mi
10:00 PM68 °FFog.6 mph83%30.15 "Hg2 mi
9:00 PM66 °FFog.10 mph88%30.15 "Hg3 mi
8:00 PM68 °FMostly cloudy.7 mph83%30.15 "Hg4 mi
7:00 PM68 °FPartly cloudy.8 mph83%30.15 "Hg4 mi
6:00 PM68 °FPassing clouds.10 mph83%30.12 "HgN/A
5:00 PM70 °FPassing clouds.9 mph78%30.12 "HgN/A
4:00 PM72 °FOvercast.10 mph73%30.12 "HgN/A
3:00 PM73 °FBroken clouds.10 mph69%30.12 "Hg6 mi
2:00 PM75 °FPartly sunny.6 mph65%30.12 "Hg6 mi
1:00 PM72 °FMore clouds than sun.7 mph73%30.15 "Hg6 mi
Weather by CustomWeather, © 2015

See weather overviewHow to use our weather pages